CW8593 Weather Reports


Display with metric or nautical units.
time (UTC)temp
F
wind
direction
speed
MPH
gust
MPH
rain 1hr
in
rain 24hr
in
rain mn
in
humidity
%
barometer
mb
20180422023727 59 262 1.0 2.0 0.00 0.00 0.00 72 1017.2
20180422022827 59 0 0.0 0.0 0.00 0.00 0.00 72 1017.2
20180422021927 58 0 0.0 0.0 0.00 0.00 0.00 72 1017.3
20180422021027 58 261 0.0 1.0 0.00 0.00 0.00 72 1017.3
20180422020127 59 0 0.0 0.0 0.00 0.00 0.00 72 1017.3
20180422015227 59 262 0.0 2.0 0.00 0.00 0.00 71 1017.4
20180422014327 59 262 0.0 2.0 0.00 0.00 0.00 70 1017.5
20180422013427 59 261 1.0 2.0 0.00 0.00 0.00 71 1017.5
20180422012527 59 262 1.0 4.0 0.00 0.00 0.00 71 1017.5
20180422011627 59 261 0.0 3.0 0.00 0.00 0.00 71 1017.7
20180422010727 59 0 0.0 0.0 0.00 0.00 0.00 70 1017.8
20180422005827 60 0 0.0 0.0 0.00 0.00 0.00 70 1017.8
20180422004927 60 261 0.0 2.0 0.00 0.00 0.00 70 1017.7
20180422004027 60 0 0.0 0.0 0.00 0.00 0.00 69 1017.8
20180422003127 60 0 0.0 0.0 0.00 0.00 0.00 70 1017.9
20180422002227 60 0 0.0 0.0 0.00 0.00 0.00 69 1017.8
20180422001327 60 261 0.0 1.0 0.00 0.00 0.00 68 1017.9
20180422000427 60 0 0.0 0.0 0.00 0.00 0.00 69 1018.0
20180421235527 60 0 0.0 0.0 0.00 0.00 0.00 68 1018.0
20180421234627 60 261 0.0 2.0 0.00 0.00 0.00 68 1018.2
20180421233726 60 261 0.0 2.0 0.00 0.00 0.00 67 1018.2
20180421232826 61 0 0.0 0.0 0.00 0.00 0.00 68 1018.3
20180421231926 61 0 0.0 0.0 0.00 0.00 0.00 68 1018.4
20180421231026 61 0 0.0 0.0 0.00 0.00 0.00 68 1018.4
20180421230126 61 262 0.0 3.0 0.00 0.00 0.00 67 1018.4
20180421225226 62 261 0.0 1.0 0.00 0.00 0.00 65 1018.4
20180421224326 62 261 0.0 1.0 0.00 0.00 0.00 65 1018.5
20180421223427 62 261 0.0 1.0 0.00 0.00 0.00 63 1018.5
20180421222526 62 261 0.0 2.0 0.00 0.00 0.00 63 1018.5
20180421221626 63 0 0.0 0.0 0.00 0.00 0.00 62 1018.5
20180421220726 62 262 0.0 2.0 0.00 0.00 0.00 62 1018.5
20180421215826 63 261 0.0 2.0 0.00 0.00 0.00 61 1018.4
20180421214926 62 262 0.0 2.0 0.00 0.00 0.00 62 1018.5
20180421214026 63 261 0.0 2.0 0.00 0.00 0.00 62 1018.4
20180421213126 63 262 0.0 2.0 0.00 0.00 0.00 62 1018.5
20180421212226 63 262 0.0 2.0 0.00 0.00 0.00 61 1018.4
20180421211326 63 0 0.0 0.0 0.00 0.00 0.00 61 1018.4
20180421210426 63 261 0.0 1.0 0.00 0.00 0.00 61 1018.5
20180421205526 63 261 1.0 4.0 0.00 0.00 0.00 61 1018.5
20180421204626 63 261 0.0 3.0 0.00 0.00 0.00 59 1018.6
20180421203726 64 262 0.0 2.0 0.00 0.00 0.00 57 1018.5
20180421202826 65 261 2.0 4.0 0.00 0.00 0.00 57 1018.5
20180421201926 65 254 1.0 4.0 0.00 0.00 0.00 55 1018.5
20180421201026 65 251 0.0 1.0 0.00 0.00 0.00 56 1018.4
20180421200126 65 251 1.0 4.0 0.00 0.00 0.00 56 1018.4
20180421195226 65 251 0.0 3.0 0.00 0.00 0.00 56 1018.4
20180421194326 65 251 0.0 3.0 0.00 0.00 0.00 56 1018.4
20180421193426 65 251 0.0 1.0 0.00 0.00 0.00 55 1018.2
20180421192526 65 251 2.0 3.0 0.00 0.00 0.00 55 1018.0
20180421191626 65 251 2.0 5.0 0.00 0.00 0.00 56 1017.9
20180421190726 66 253 3.0 7.0 0.00 0.00 0.00 55 1017.9
20180421185826 66 263 2.0 8.0 0.00 0.00 0.00 54 1017.9
20180421184926 66 255 1.0 7.0 0.00 0.00 0.00 55 1017.9
20180421184026 66 228 2.0 5.0 0.00 0.00 0.00 57 1017.8
20180421183126 66 227 2.0 4.0 0.00 0.00 0.00 57 1017.7
20180421182226 66 227 1.0 4.0 0.00 0.00 0.00 57 1017.7
20180421181326 67 227 2.0 4.0 0.00 0.00 0.00 56 1017.6
20180421180426 67 224 3.0 7.0 0.00 0.00 0.00 55 1017.6
20180421175526 67 220 4.0 7.0 0.00 0.00 0.00 55 1017.6
20180421174626 67 208 6.0 12.0 0.00 0.00 0.00 55 1017.5
20180421173726 68 204 8.0 12.0 0.00 0.00 0.00 54 1017.5
20180421172826 68 203 7.0 14.0 0.00 0.00 0.00 52 1017.6
20180421171926 69 203 6.0 12.0 0.00 0.00 0.00 52 1017.5
20180421171026 70 199 6.0 11.0 0.00 0.00 0.00 51 1017.5
20180421170126 70 203 6.0 13.0 0.00 0.00 0.00 51 1017.5
20180421165226 70 200 6.0 13.0 0.00 0.00 0.00 50 1017.6
20180421164326 70 194 6.0 13.0 0.00 0.00 0.00 50 1017.8
20180421163426 70 198 6.0 16.0 0.00 0.00 0.00 51 1017.8
20180421162526 70 198 7.0 13.0 0.00 0.00 0.00 51 1017.7
20180421161626 70 199 8.0 14.0 0.00 0.00 0.00 51 1017.9
20180421160726 70 206 7.0 16.0 0.00 0.00 0.00 50 1018.0
20180421155826 71 207 7.0 12.0 0.00 0.00 0.00 50 1018.0
20180421154926 70 204 8.0 20.0 0.00 0.00 0.00 51 1018.0
20180421154026 70 198 8.0 15.0 0.00 0.00 0.00 51 1018.1
20180421153126 69 200 5.0 17.0 0.00 0.00 0.00 51 1018.0
20180421152226 72 164 4.0 11.0 0.00 0.00 0.00 50 1018.0
20180421151326 73 196 5.0 9.0 0.00 0.00 0.00 49 1018.1
20180421150426 72 206 8.0 12.0 0.00 0.00 0.00 48 1018.0
20180421145526 71 208 8.0 15.0 0.00 0.00 0.00 48 1018.2
20180421144626 71 205 5.0 15.0 0.00 0.00 0.00 49 1018.4
20180421143726 72 196 5.0 11.0 0.00 0.00 0.00 51 1018.5
20180421142826 72 210 6.0 13.0 0.00 0.00 0.00 49 1018.6
20180421141926 72 209 7.0 13.0 0.00 0.00 0.00 48 1018.7
20180421141026 71 200 6.0 12.0 0.00 0.00 0.00 51 1018.9
20180421140126 71 195 6.0 12.0 0.00 0.00 0.00 53 1019.0
20180421135226 71 183 7.0 15.0 0.00 0.00 0.00 54 1019.2
20180421134326 71 198 7.0 13.0 0.00 0.00 0.00 51 1019.2
20180421133426 71 203 7.0 13.0 0.00 0.00 0.00 51 1019.2
20180421132525 71 199 7.0 14.0 0.00 0.00 0.00 53 1019.3
20180421131626 71 202 8.0 13.0 0.00 0.00 0.00 53 1019.4
20180421130726 70 202 8.0 14.0 0.00 0.00 0.00 54 1019.5
20180421125825 70 201 8.0 15.0 0.00 0.00 0.00 53 1019.5
20180421124925 70 205 7.0 14.0 0.00 0.00 0.00 54 1019.7
20180421124025 70 199 5.0 11.0 0.00 0.00 0.00 55 1019.7
20180421123125 70 220 4.0 12.0 0.00 0.00 0.00 54 1019.7
20180421122225 70 205 6.0 12.0 0.00 0.00 0.00 53 1019.9
20180421121325 68 196 6.0 13.0 0.00 0.00 0.00 58 1019.9
20180421120425 69 181 7.0 12.0 0.00 0.00 0.00 58 1020.0
20180421115525 68 153 7.0 12.0 0.00 0.00 0.00 57 1020.0
20180421114625 68 157 7.0 13.0 0.00 0.00 0.00 59 1019.9
20180421113725 68 165 7.0 12.0 0.00 0.00 0.00 60 1020.0
20180421112825 68 167 6.0 12.0 0.00 0.00 0.00 61 1020.0
20180421111925 68 159 6.0 11.0 0.00 0.00 0.00 61 1020.2
20180421111025 69 157 6.0 12.0 0.00 0.00 0.00 62 1020.1
20180421110125 69 165 5.0 10.0 0.00 0.00 0.00 61 1020.1
20180421105225 70 173 4.0 9.0 0.00 0.00 0.00 59 1020.1
20180421104325 71 182 4.0 8.0 0.00 0.00 0.00 57 1020.1
20180421103425 70 160 4.0 8.0 0.00 0.00 0.00 61 1020.0
20180421102525 70 153 4.0 8.0 0.00 0.00 0.00 61 1019.9
20180421101625 70 170 4.0 9.0 0.00 0.00 0.00 61 1020.0
20180421100725 71 164 3.0 10.0 0.00 0.00 0.00 60 1020.0
20180421095825 71 158 2.0 8.0 0.00 0.00 0.00 57 1019.9
20180421094925 72 155 3.0 6.0 0.00 0.00 0.00 55 1019.9
20180421094025 71 143 4.0 8.0 0.00 0.00 0.00 55 1019.9
20180421093125 71 168 3.0 8.0 0.00 0.00 0.00 56 1019.9
20180421092225 72 175 2.0 6.0 0.00 0.00 0.00 54 1019.9
20180421091325 72 191 1.0 6.0 0.00 0.00 0.00 51 1019.9
20180421090425 72 194 1.0 4.0 0.00 0.00 0.00 50 1019.8
20180421085525 73 194 1.0 3.0 0.00 0.00 0.00 51 1019.9
20180421084625 72 194 1.0 5.0 0.00 0.00 0.00 52 1019.9
20180421083725 71 194 0.0 3.0 0.00 0.00 0.00 53 1019.9
20180421082825 70 194 1.0 3.0 0.00 0.00 0.00 54 1019.9
20180421081925 69 195 1.0 4.0 0.00 0.00 0.00 57 1019.9
20180421081025 69 194 1.0 3.0 0.00 0.00 0.00 57 1019.9
20180421080125 69 194 0.0 2.0 0.00 0.00 0.00 58 1019.9
20180421075225 69 194 0.0 2.0 0.00 0.00 0.00 56 1019.8
20180421074325 68 194 0.0 1.0 0.00 0.00 0.00 58 1019.9
20180421073425 67 194 0.0 2.0 0.00 0.00 0.00 60 1019.9
20180421072525 66 194 0.0 2.0 0.00 0.00 0.00 61 1019.9
20180421071625 65 194 0.0 2.0 0.00 0.00 0.00 64 1019.8
20180421070725 64 194 0.0 2.0 0.00 0.00 0.00 65 1019.7
20180421065825 64 194 0.0 2.0 0.00 0.00 0.00 67 1019.9
20180421064925 64 194 0.0 1.0 0.00 0.00 0.00 68 1019.8
20180421064025 62 194 0.0 1.0 0.00 0.00 0.00 70 1019.6
20180421063125 61 0 0.0 0.0 0.00 0.00 0.00 70 1019.6
20180421062225 60 0 0.0 0.0 0.00 0.00 0.00 72 1019.6
20180421061325 60 0 0.0 0.0 0.00 0.00 0.00 73 1019.6
20180421060425 58 0 0.0 0.0 0.00 0.00 0.00 76 1019.6
20180421055525 57 0 0.0 0.0 0.00 0.00 0.00 78 1019.6
20180421054625 56 0 0.0 0.0 0.00 0.00 0.00 79 1019.6
20180421053725 56 0 0.0 0.0 0.00 0.00 0.00 79 1019.6
20180421052825 56 195 0.0 1.0 0.00 0.00 0.00 80 1019.5
20180421051925 56 0 0.0 0.0 0.00 0.00 0.00 79 1019.5
20180421051025 56 0 0.0 0.0 0.00 0.00 0.00 79 1019.4
20180421050125 56 194 1.0 3.0 0.00 0.00 0.00 78 1019.3
20180421045225 57 195 0.0 3.0 0.00 0.00 0.00 78 1019.4
20180421044325 57 194 1.0 1.0 0.00 0.00 0.00 78 1019.4
20180421043425 57 195 1.0 3.0 0.00 0.00 0.00 79 1019.3
20180421042525 57 195 0.0 3.0 0.00 0.00 0.00 77 1019.3
20180421041625 56 194 0.0 1.0 0.00 0.00 0.00 76 1019.3
20180421040725 57 194 0.0 2.0 0.00 0.00 0.00 75 1019.2
20180421035825 57 0 1.0 0.0 0.00 0.00 0.00 73 1019.1
20180421034925 57 195 1.0 5.0 0.00 0.00 0.00 72 1019.2
20180421034024 59 195 1.0 1.0 0.00 0.00 0.00 69 1019.2
20180421033125 60 195 2.0 4.0 0.00 0.00 0.00 67 1019.2
20180421032225 59 195 0.0 3.0 0.00 0.00 0.00 69 1019.2
20180421031325 58 194 0.0 2.0 0.00 0.00 0.00 72 1019.2
20180421030424 58 194 0.0 1.0 0.00 0.00 0.00 73 1019.3
20180421025524 57 0 0.0 0.0 0.00 0.00 0.00 77 1019.4
20180421024624 57 194 0.0 1.0 0.00 0.00 0.00 76 1019.4